Presure
228 219 239 240 230 239 265 268 252 231 230 231 206 217 204 210 224 219 204 207 205 212 217 217 210 203 205 205 205 210 212 207 208 217 220 223 219 214 213 215 218 201 213 231
233 225 235 244 232 250 263 262 249 244 229 227 220 217 224 203 200 216 212 212 215 206 206 206 219 214 207 213 211 211 206 213 218 214 210 224 216 211 209 214 223 220 213 219
231 234 236 246 245 256 257 256 242 242 227 225 223 221 226 213 218 219 218 214 207 203 205 208 211 204 206 214 215 215 215 220 216 223 220 215 224 208 215 216 219 228 233 234
243 244 242 254 245 256 230 245 250 243 237 243 216 221 235 215 218 221 208 209 205 211 212 205 208 217 216 217 210 219 208 218 215 222 222 218 222 223 228 233 234 244 309 301
261 250 246 252 246 254 240 233 239 236 227 228 216 233 230 230 232 226 219 222 221 224 214 223 220 214 225 230 219 215 227 222 221 222 220 229 232 235 249 321 312 303 296 282
317 283 254 248 248 244 239 227 241 239 233 222 223 224 204 217 226 229 237 218 229 230 229 235 232 222 220 227 227 222 217 218 229 235 236 247 317 298 292 276 274 273 273 264
325 299 288 257 235 239 234 224 225 220 231 239 219 231 231 233 228 212 215 202 225 204 209 213 218 222 217 217 221 224 226 233 244 305 299 299 285 284 274 271 262 258 251 247
368 320 291 274 251 232 235 238 217 227 217 223 245 245 242 235 226 222 231 232 234 238 222 221 221 224 232 226 219 235 292 288 282 266 281 270 274 267 260 257 262 264 271 263
375 358 320 285 242 241 246 233 227 224 226 222 221 221 227 224 221 224 227 230 233 226 224 229 228 228 234 242 284 297 286 278 280 270 265 265 264 279 287 257 241 202 209 216
397 382 372 348 286 251 242 231 229 223 223 223 221 220 221 227 220 224 228 227 232 233 231 236 239 257 293 281 285 278 268 266 261 262 270 249 206 211 216 219 220 224 228 230
327 336 356 399 402 357 251 245 237 226 223 226 224 226 223 226 228 229 234 234 237 238 239 290 284 276 271 270 268 265 270 276 228 204 211 217 222 224 226 235 239 241 247 244
292 291 298 324 324 327 331 339 269 254 244 242 237 238 238 237 236 238 248 293 286 281 273 277 266 277 289 285 244 211 205 212 213 219 221 228 233 239 246 241 246 262 266 262
214 222 283 296 284 284 293 303 306 308 308 306 304 302 301 296 293 290 285 282 274 286 276 237 232 220 208 213 216 217 221 223 228 233 240 247 251 259 265 266 262 269 285 294
216 216 211 209 213 213 248 268 277 286 285 285 284 287 288 289 270 238 237 226 201 205 211 213 215 219 226 227 228 231 240 247 254 258 260 259 263 270 276 283 292 302 370 355
229 228 226 223 219 217 214 206 205 205 207 208 205 205 205 209 210 214 215 217 221 223 224 229 232 235 238 249 258 260 261 260 262 265 272 279 284 290 302 348 357 344 329 351
252 252 251 248 240 233 230 228 229 227 226 223 221 223 222 222 224 226 231 234 236 245 253 255 257 257 257 259 264 270 275 278 284 289 294 303 365 356 383 371 362 361 355 351
267 263 259 257 253 250 249 248 247 244 245 244 245 246 247 249 252 254 253 254 256 257 258 261 269 272 279 283 290 298 304 325 382 406 394 376 364 362 358 355 350 345 338 337
276 274 272 271 270 270 266 262 259 259 260 261 261 261 262 261 260 262 265 270 277 283 283 299 306 311 356 393 401 404 395 382 370 365 362 358 349 343 340 343 339 336 334 334
276 281 287 283 278 280 285 286 285 285 283 280 281 283 285 290 300 309 312 317 322 392 400 411 413 388 379 376 371 363 356 350 346 344 341 340 340 333 332 334 330 335 338 335
376 356 329 365 348 313 358 349 344 342 341 340 345 343 344 465 428 177 434 408 385 381 382 373 357 360 357 354 353 350 346 340 340 336 331 333 339 339 338 338 339 341 342 343
352 350 441 517 471 460 492 455 446 461 434 429 442 425 390 405 239 390 375 371 358 357 349 352 350 347 345 342 336 336 340 345 346 348 350 351 353 354 354 353 354 355 356 356
355 352 352 348 391 414 411 400 391 373 380 370 342 359 377 371 365 343 350 348 352 337 340 356 348 343 346 349 350 348 355 359 360 362 366 369 371 372 373 376 378 380 383 384
323 318 340 321 326 332 328 365 366 211 352 350 347 357 336 327 344 370 367 361 355 355 352 351 351 361 363 370 373 368 369 376 381 383 383 385 383 379 374 372 372 375 378 383
409 406 399 396 368 363 360 210 214 335 358 344 376 376 325 349 367 362 370 384 382 382 380 378 384 386 386 381 380 376 381 383 388 396 415 446 543 560 556 552 546 542 536 534
355 358 353 357 317 213 358 374 380 384 383 337 291 387 323 381 386 384 391 392 386 385 388 382 377 374 376 383 397 416 419 414 411 417 594 590 585 581 576 567 557 550 541 534
327 363 370 362 379 384 381 382 382 388 382 289 393 393 387 405 396 390 385 386 381 380 375 326 372 371 383 414 420 421 414 406 400 401 601 596 591 583 576 565 557 550 544 538
370 379 372 360 347 333 302 325 316 255 245 316 325 319 214 338 352 364 386 384 387 385 383 377 372 371 383 452 448 426 405 401 399 397 398 474 465 456 484 499 510 511 511 508
Wind_Speed
81 82 82 76 68 71 68 68 74 76 77 78 66 72 77 78 76 82 83 83 84 85 83 83 83 83 87 88 92 95 98 97 94 95 95 98 102 106 110 115 117 120 124 117
84 80 84 81 68 76 66 67 74 80 80 74 75 75 79 78 81 84 86 86 85 85 85 84 85 87 90 93 95 96 98 101 101 97 99 99 103 105 111 117 119 118 123 120
83 85 86 89 77 67 66 70 70 72 73 74 75 80 79 77 81 87 90 89 86 88 90 94 90 90 92 97 99 102 104 102 102 103 103 103 105 108 114 118 120 124 123 131
89 89 89 82 69 62 67 72 72 71 70 77 74 80 82 77 80 83 88 88 90 97 99 95 95 97 97 95 97 102 100 104 103 106 108 108 110 113 117 122 129 135 85 89
91 85 83 78 67 61 70 69 70 76 72 73 72 75 70 73 83 89 86 90 93 100 98 102 102 98 103 103 98 100 107 108 108 108 110 116 116 120 127 75 76 77 79 77
82 90 85 77 67 67 69 69 73 73 78 73 78 78 74 80 85 86 88 86 88 91 93 99 104 99 98 102 104 102 104 108 117 120 121 125 72 72 73 79 77 78 81 85
76 72 75 77 69 68 73 73 74 75 79 82 73 77 85 88 86 75 81 77 89 82 86 90 94 98 98 100 103 108 114 123 127 77 76 75 76 72 74 75 79 84 89 91
54 71 71 73 70 70 74 77 77 81 78 79 85 82 88 88 81 83 89 90 94 97 91 94 98 102 105 104 100 120 82 78 80 97 83 82 77 76 79 80 81 84 84 85
36 50 68 72 72 73 74 76 80 80 88 85 79 87 87 84 82 85 90 95 97 92 97 103 104 102 107 114 87 70 75 83 80 83 85 83 78 80 80 79 79 89 92 96
17 29 40 56 75 73 73 75 78 83 87 85 87 86 89 91 86 89 92 97 103 105 104 109 113 105 77 77 72 72 76 79 82 85 88 84 81 83 85 89 90 94 99 102
15 9 8 18 32 54 77 78 80 82 87 90 89 96 93 98 100 101 107 105 109 112 114 75 73 75 76 78 78 79 80 80 81 85 89 90 90 92 95 97 102 105 107 109
27 23 20 16 17 18 23 28 87 89 92 95 95 96 98 99 100 104 106 69 72 71 78 75 77 76 76 78 76 80 83 85 87 92 94 98 100 104 104 104 109 111 110 112
32 28 24 22 24 25 27 29 32 35 40 46 49 53 56 59 62 65 68 68 72 72 71 73 74 77 79 82 83 86 88 92 96 100 105 105 109 109 108 109 110 113 117 120
45 42 41 41 38 38 34 33 34 38 42 46 48 51 53 56 60 63 66 68 72 74 76 79 81 84 85 89 92 96 100 102 101 103 105 105 111 110 113 115 119 120 83 88
53 52 51 50 48 48 49 53 54 55 58 58 61 63 65 66 68 70 72 74 77 80 83 87 91 94 96 98 99 100 101 103 103 105 109 112 115 118 120 92 84 88 91 79
58 56 55 54 55 56 58 59 59 61 63 65 67 68 70 72 75 78 81 83 86 89 91 93 95 97 98 100 102 104 106 108 111 113 114 117 78 81 66 66 70 70 72 74
60 61 60 60 59 59 60 62 63 65 67 70 72 75 77 79 81 83 85 87 90 92 94 96 99 100 103 106 108 110 111 102 66 51 52 58 67 64 70 71 71 72 74 76
61 61 61 61 62 63 64 66 67 68 70 72 75 77 79 80 83 85 87 90 93 95 95 100 102 103 79 56 50 46 48 52 59 61 63 64 65 68 72 73 73 72 74 77
59 59 60 60 61 63 64 66 68 70 70 73 75 77 80 82 85 87 88 90 92 53 46 38 35 46 49 49 50 54 58 60 61 63 67 69 69 70 72 74 76 77 77 78
57 58 57 60 60 59 64 66 67 68 70 71 70 72 75 11 23 47 17 28 38 38 36 41 51 48 51 52 54 56 59 62 64 64 67 70 71 74 74 76 77 78 79 79
43 44 23 5 13 14 5 12 12 5 12 13 7 9 25 16 40 22 31 32 40 40 44 44 47 49 52 54 58 61 64 66 69 72 73 74 75 76 76 76 77 77 77 77
31 32 32 32 16 7 6 8 11 18 14 18 31 24 17 20 24 33 34 36 37 42 43 45 49 52 56 59 61 64 66 68 69 71 72 72 73 74 74 74 74 74 74 74
25 26 20 25 24 23 26 10 10 31 16 18 22 16 27 30 27 30 34 38 41 43 47 49 52 51 53 54 54 56 59 60 61 62 64 65 66 66 67 67 68 69 70 71
28 22 21 21 18 16 16 28 27 15 13 13 27 30 17 29 30 32 28 27 28 30 33 36 39 43 45 47 50 52 53 55 57 59 61 63 58 56 54 53 52 52 51 50
24 20 18 24 16 25 26 32 35 36 37 22 14 30 22 27 28 33 34 38 39 39 41 41 42 45 47 49 50 52 53 53 53 54 50 49 49 47 46 45 44 44 43 43
19 24 38 38 45 48 48 48 47 45 45 14 40 41 45 47 47 46 47 48 51 52 50 44 50 51 52 52 51 50 50 49 49 49 44 43 42 40 39 38 37 36 36 36
39 54 56 59 60 59 47 60 57 13 19 54 54 53 38 68 72 71 66 66 63 59 56 56 57 57 57 53 50 48 47 47 47 48 48 45 43 41 38 34 32 31 31 31
Wind_Direction
304 303 301 297 292 296 288 263 257 256 259 254 266 260 262 262 260 261 262 263 265 268 272 271 270 270 272 272 274 277 278 276 279 281 280 279 278 279 280 280 281 278 281 283
296 297 298 296 285 294 281 265 258 254 261 262 262 263 259 265 269 263 261 262 266 269 271 272 276 274 273 274 274 276 277 279 281 279 279 282 280 280 280 281 281 282 281 286
292 292 293 292 287 283 277 266 260 259 258 260 261 263 264 263 267 265 266 267 270 271 272 274 273 273 275 277 277 278 279 282 283 284 282 280 282 278 279 279 281 285 288 285
287 287 287 286 279 273 270 268 264 261 263 259 262 263 260 262 263 262 263 265 268 269 270 272 274 275 277 278 279 281 280 282 283 284 284 282 282 281 285 288 287 287 285 284
282 282 282 281 275 266 265 268 267 264 266 267 265 268 261 260 265 263 264 268 267 270 271 273 274 278 281 281 281 282 284 283 284 285 284 287 287 288 288 283 282 283 282 284
263 271 273 271 269 265 264 265 264 263 261 266 267 267 268 268 266 268 270 269 270 271 274 274 274 278 282 284 284 284 285 285 287 288 286 286 283 283 280 280 281 282 282 279
253 253 257 260 257 258 260 262 265 266 268 265 265 266 265 265 268 274 272 273 273 276 278 279 281 283 282 283 284 288 290 289 288 281 279 279 279 278 278 278 279 280 282 284
255 245 242 251 249 252 252 254 265 263 266 267 266 269 268 271 272 275 274 274 275 276 279 280 281 282 286 288 288 289 281 278 277 284 281 283 284 282 280 278 277 278 280 279
257 249 241 240 252 249 247 251 258 262 264 268 274 273 272 275 278 276 277 279 281 284 286 285 286 287 288 290 281 278 276 277 279 283 283 284 283 283 283 279 281 286 287 287
274 258 250 247 242 246 250 256 257 262 267 269 272 276 280 279 282 283 283 284 284 284 286 288 289 287 283 285 285 283 280 280 281 282 284 286 288 287 288 288 287 288 286 287
332 328 303 274 260 251 250 253 254 260 265 267 271 272 276 278 279 280 281 284 285 286 287 279 282 283 283 283 283 283 282 282 285 288 289 289 289 289 288 289 289 288 288 288
318 314 309 289 279 268 260 261 253 255 259 261 265 269 271 274 277 278 278 277 277 277 280 281 282 283 285 283 284 285 286 288 290 289 290 290 290 289 289 290 288 289 289 289
293 299 304 297 290 284 279 275 271 268 268 268 271 272 273 276 277 277 278 278 279 281 282 282 283 285 287 287 287 288 288 290 291 291 288 289 288 289 290 290 290 290 292 293
294 290 282 280 279 278 281 280 277 274 272 272 274 275 277 278 277 276 277 281 284 285 286 286 285 286 288 289 290 290 288 288 288 289 289 290 289 291 291 292 292 292 292 292
292 291 291 289 285 281 277 273 274 274 275 275 276 277 278 278 280 281 282 284 285 286 288 288 288 288 288 287 287 288 289 289 290 290 290 291 291 292 292 292 292 292 293 294
288 286 284 282 281 281 282 282 281 281 282 283 284 283 283 284 284 284 284 284 284 284 285 286 287 288 288 289 289 289 289 290 290 290 290 290 289 289 292 291 291 292 293 293
284 283 283 281 281 280 279 278 278 278 279 279 279 279 280 281 282 283 284 285 286 286 287 287 287 287 288 288 288 288 288 288 289 292 291 289 291 291 292 293 293 295 296 297
284 282 281 280 279 278 278 278 279 279 279 279 279 280 281 282 283 283 284 285 284 285 285 285 285 286 287 288 291 293 292 291 291 292 291 290 290 291 293 295 296 297 297 297
283 282 281 281 281 280 279 279 279 279 278 279 280 280 281 281 281 281 282 283 284 288 289 292 296 291 290 292 292 291 291 290 290 292 293 294 295 295 296 296 297 297 297 298
278 278 279 276 277 278 275 276 276 277 278 279 280 281 282 319 298 301 309 295 290 291 292 292 290 290 290 290 292 293 293 294 294 294 294 296 297 297 296 296 296 296 296 296
283 282 287 29 299 296 16 303 299 356 303 303 12 319 290 312 300 298 294 295 292 292 292 294 296 296 297 298 298 299 300 300 299 299 299 298 298 297 296 295 294 293 294 294
290 290 289 289 298 326 353 329 311 298 307 300 293 300 307 303 303 302 300 298 301 297 300 307 307 307 307 306 304 303 301 299 298 298 297 297 297 296 297 296 295 295 295 294
299 296 306 295 297 300 298 340 353 305 328 324 321 313 316 315 306 332 331 329 323 320 318 313 310 305 303 303 303 303 302 302 302 302 301 300 299 299 298 298 297 296 296 295
71 85 85 80 70 53 47 303 306 356 0 344 18 9 319 348 346 340 329 333 325 325 325 323 326 325 323 320 317 315 313 311 309 308 306 305 307 308 308 306 304 303 302 301
48 58 65 72 45 305 54 52 46 41 36 21 324 19 347 15 12 12 7 6 0 355 354 350 345 340 337 333 328 324 323 321 320 318 323 320 321 320 319 317 316 314 311 309
46 78 75 72 69 66 62 59 56 53 52 6 50 50 48 41 38 31 25 19 15 10 7 356 357 353 348 343 338 336 333 330 328 326 332 332 329 330 329 328 325 322 319 317
82 81 79 77 75 72 55 69 67 340 316 62 60 54 306 49 44 39 31 26 21 18 13 9 6 2 358 351 347 345 344 343 340 338 336 335 332 332 334 335 334 334 333 332